Location: Kitt Peak
(31.9633°N, 111.6000°W)
Time: 07:13:22
(UTC-07:00)

Amateur Radio Satellites - All Passes

Search period start: 30 August 2014 06:43
Search period end: 31 August 2014 06:43
Location: Kitt Peak, 31.9633°N, 111.6000°W

Satellite Date Start Highest point End Downlink Frequencies (MHz)
Time Altitude Azimuth
Saudisat 1A 30 Aug 06:52:19 06:55:31 19° 53° (NE) 06:58:42 436.775 MHz
SO-67 30 Aug 07:13:34 07:16:53 44° 99° (E) 07:20:11 435.3500 MHz FM
KITSAT 1 30 Aug 07:21:52 07:27:46 22° 48° (NE) 07:33:38 435.175 FM
Hamsat 30 Aug 07:32:22 07:34:30 14° 292° (WNW) 07:36:37 145.90 MHz
HO-68 30 Aug 08:01:10 08:04:31 14° 93° (E) 08:07:51 435.675 MHz FM
JAS-2 30 Aug 08:05:17 08:07:21 12° 294° (WNW) 08:09:27 435.800 - 435.900 CW/SSB, 435.910 FM
RS-15 30 Aug 08:16:36 08:27:31 59° 302° (WNW) 08:38:16 29.354 - 29.394 USB, Beacon 29.352 USB
Saudisat 1A 30 Aug 08:31:10 08:35:09 34° 247° (WSW) 08:39:06 436.775 MHz
ISS 30 Aug 09:06:29 09:09:21 27° 129° (SE) 09:12:12 145.800 FM
UKube-1 30 Aug 09:15:00 09:18:44 28° 98° (E) 09:22:27 145.840 MHz, 145.915 MHz
KITSAT 1 30 Aug 09:15:52 09:23:56 77° 247° (WSW) 09:31:57 435.175 FM
Oscar 11 30 Aug 09:21:58 09:25:18 21° 96° (E) 09:28:37 145.825 FM, Beacon 2401.500 USB
HO-68 30 Aug 09:45:37 09:52:47 81° 287° (WNW) 09:59:56 435.675 MHz FM
FUNcube-1 30 Aug 09:46:46 09:49:34 16° 94° (E) 09:52:23 145.950 - 145.970 MHz USB
RS-15 30 Aug 10:37:05 10:42:47 15° 329° (NNW) 10:48:30 29.354 - 29.394 USB, Beacon 29.352 USB
ISS 30 Aug 10:43:25 10:46:03 22° 323° (NW) 10:48:42 145.800 FM
UKube-1 30 Aug 10:51:37 10:54:43 19° 291° (WNW) 10:57:48 145.840 MHz, 145.915 MHz
Oscar 11 30 Aug 10:57:48 11:01:23 25° 289° (WNW) 11:04:57 145.825 FM, Beacon 2401.500 USB
PANSAT 30 Aug 11:17:05 11:20:25 28° 164° (SSE) 11:23:45 not established
KITSAT 1 30 Aug 11:17:22 11:18:02 10° 261° (W) 11:18:42 435.175 FM
FUNcube-1 30 Aug 11:21:49 11:26:00 37° 287° (WNW) 11:30:14 145.950 - 145.970 MHz USB
HO-68 30 Aug 11:36:52 11:39:22 12° 302° (WNW) 11:41:52 435.675 MHz FM
JAS-1B 30 Aug 12:10:29 12:15:45 16° 60° (ENE) 12:20:46 435.800 - 435.900 CW/SSB
MaSat-1 30 Aug 12:22:39 12:27:07 45° 107° (ESE) 12:31:57 437.345 MHz
Oscar 19 30 Aug 12:30:36 12:34:51 27° 70° (ENE) 12:39:08 437.125 CW, 437.150 USB
SO-50 30 Aug 12:34:17 12:39:00 53° 60° (ENE) 12:43:45 436.795 FM
Oscar 10/S400 30 Aug 12:38:41 06:42:52 31° 226° (SW) 13:14:57 145.825 - 145.975 CW/USB, Beacon 145.810 USB
PANSAT 30 Aug 12:56:34 13:00:19 49° 176° (S) 13:04:03 not established
AO-Echo 30 Aug 13:00:57 13:04:59 24° 70° (ENE) 13:08:55 ?
ITAMSAT 1 30 Aug 13:02:29 13:06:31 23° 69° (ENE) 13:10:32 435.822 SSB
Oscar 16 30 Aug 13:04:27 13:09:31 63° 75° (ENE) 13:14:38 437.025 USB, Beacon 2401.1428
Uribyol 2 30 Aug 13:12:00 13:16:29 31° 70° (ENE) 13:20:58 436.500 FM
AO-27 30 Aug 13:30:22 13:35:18 46° 73° (ENE) 13:40:14 436.795 MHz FM
JAS-1B 30 Aug 13:55:10 14:05:04 79° 74° (ENE) 14:14:11 435.800 - 435.900 CW/SSB
Gurwin Techsat 1B 30 Aug 13:56:54 14:01:41 36° 71° (ENE) 14:06:29 435.225 FM
MaSat-1 30 Aug 14:01:02 14:04:23 18° 303° (WNW) 14:07:54 437.345 MHz
Oscar 19 30 Aug 14:09:39 14:14:02 28° 263° (W) 14:18:28 437.125 CW, 437.150 USB
SO-50 30 Aug 14:16:46 14:19:06 14° 252° (WSW) 14:21:26 436.795 FM
UOSAT-12 30 Aug 14:35:45 14:40:27 71° 61° (ENE) 14:45:04 437.025 FM, 437.400 FM
PANSAT 30 Aug 14:36:38 14:40:17 41° 189° (S) 14:43:56 not established
AO-Echo 30 Aug 14:39:09 14:43:34 30° 262° (W) 14:47:54 ?
AO-7 30 Aug 14:40:07 14:46:37 26° 61° (ENE) 14:53:07 29.400 - 29.500 MHz
ITAMSAT 1 30 Aug 14:41:10 14:45:46 33° 262° (W) 14:50:24 435.822 SSB
Oscar 16 30 Aug 14:47:40 14:49:12 11° 268° (W) 14:50:45 437.025 USB, Beacon 2401.1428
TMSAT-1 30 Aug 14:48:02 14:53:19 84° 76° (ENE) 14:58:38 436.925 FM
Uribyol 2 30 Aug 14:51:47 14:55:53 24° 264° (W) 15:00:01 436.500 FM
AO-27 30 Aug 15:11:51 15:14:58 16° 266° (W) 15:18:06 436.795 MHz FM
RS-15 30 Aug 15:12:19 15:21:12 26° 44° (NE) 15:30:15 29.354 - 29.394 USB, Beacon 29.352 USB
Sapphire 30 Aug 15:16:59 15:20:08 16° 104° (ESE) 15:23:18 437.095 MHz 1200 baud AX-25 AFSK
Uosat F 30 Aug 15:29:02 15:33:36 37° 72° (ENE) 15:38:10 435.120 FM
Gurwin Techsat 1B 30 Aug 15:37:37 15:41:39 22° 264° (W) 15:45:43 435.225 FM
PCSat 30 Aug 15:44:34 15:49:22 34° 108° (ESE) 15:54:12 145.825 MHz
JAS-1B 30 Aug 15:48:56 15:55:51 22° 266° (W) 16:02:32 435.800 - 435.900 CW/SSB
PANSAT 30 Aug 16:17:21 16:20:04 18° 201° (SSW) 16:22:47 not established
JAS-2 30 Aug 16:27:06 16:30:40 16° 67° (ENE) 16:34:01 435.800 - 435.900 CW/SSB, 435.910 FM
AO-7 30 Aug 16:30:35 16:38:47 60° 256° (WSW) 16:47:00 29.400 - 29.500 MHz
Hamsat 30 Aug 16:44:35 16:47:19 17° 69° (ENE) 16:50:03 145.90 MHz
OPAL 30 Aug 16:54:32 16:59:46 76° 104° (ESE) 17:04:56 ?
Sapphire 30 Aug 16:57:48 17:03:03 52° 298° (WNW) 17:08:20 437.095 MHz 1200 baud AX-25 AFSK
Uosat F 30 Aug 17:08:53 17:12:26 19° 264° (W) 17:15:59 435.120 FM
ISS 30 Aug 17:15:17 17:18:27 40° 41° (NE) 17:21:37 145.800 FM
RS-15 30 Aug 17:23:34 17:34:46 82° 245° (WSW) 17:46:27 29.354 - 29.394 USB, Beacon 29.352 USB
PCSat 30 Aug 17:28:16 17:32:45 26° 303° (WNW) 17:37:17 145.825 MHz
JAS-2 30 Aug 18:09:01 18:15:23 60° 258° (WSW) 18:21:02 435.800 - 435.900 CW/SSB, 435.910 FM
Hamsat 30 Aug 18:19:07 18:22:58 32° 263° (W) 18:26:52 145.90 MHz
OPAL 30 Aug 18:36:33 18:37:55 11° 299° (WNW) 18:39:17 ?
STRAND 1 30 Aug 18:38:28 18:43:05 34° 98° (E) 18:47:42 ?
ISS 30 Aug 18:53:16 18:54:53 13° 234° (SW) 18:56:30 145.800 FM
SO-67 30 Aug 19:14:31 19:17:51 45° 261° (W) 19:21:11 435.3500 MHz FM
RS-15 30 Aug 19:40:07 19:45:32 15° 260° (W) 19:51:04 29.354 - 29.394 USB, Beacon 29.352 USB
UKube-1 30 Aug 20:07:21 20:09:37 14° 67° (ENE) 20:11:52 145.840 MHz, 145.915 MHz
HO-68 30 Aug 20:08:44 20:15:27 47° 69° (ENE) 20:22:12 435.675 MHz FM
STRAND 1 30 Aug 20:18:11 20:22:01 22° 292° (WNW) 20:25:51 ?
Saudisat 1A 30 Aug 20:55:18 20:57:43 15° 108° (ESE) 21:00:08 436.775 MHz
UKube-1 30 Aug 21:41:22 21:45:26 39° 261° (W) 21:49:31 145.840 MHz, 145.915 MHz
KITSAT 1 30 Aug 21:45:03 21:51:21 26° 105° (ESE) 21:57:38 435.175 FM
Oscar 11 30 Aug 21:47:09 21:51:24 59° 259° (W) 21:55:42 145.825 FM, Beacon 2401.500 USB
HO-68 30 Aug 21:57:26 22:03:14 27° 263° (W) 22:09:05 435.675 MHz FM
FUNcube-1 30 Aug 22:13:12 22:17:21 84° 258° (WSW) 22:21:35 145.950 - 145.970 MHz USB
MaSat-1 30 Aug 22:22:18 22:26:17 33° 61° (ENE) 22:29:45 437.345 MHz
Saudisat 1A 30 Aug 22:32:45 22:36:54 41° 302° (WNW) 22:41:05 436.775 MHz
KITSAT 1 30 Aug 23:38:15 23:46:09 57° 300° (WNW) 23:54:07 435.175 FM
MaSat-1 31 Aug 00:00:43 00:02:45 14° 261° (W) 00:04:39 437.345 MHz
PCSat 31 Aug 00:39:46 00:41:14 11° 49° (NE) 00:42:41 145.825 MHz
Oscar 19 31 Aug 00:48:21 00:50:57 14° 93° (E) 00:53:31 437.125 CW, 437.150 USB
Oscar 16 31 Aug 01:21:29 01:26:10 34° 98° (E) 01:30:49 437.025 USB, Beacon 2401.1428
ITAMSAT 1 31 Aug 01:21:53 01:23:42 12° 93° (E) 01:25:31 435.822 SSB
Uribyol 2 31 Aug 01:30:30 01:33:45 17° 94° (E) 01:37:00 436.500 FM
KITSAT 1 31 Aug 01:41:07 01:43:24 11° 321° (NW) 01:45:41 435.175 FM
AO-27 31 Aug 01:48:52 01:53:05 25° 97° (E) 01:57:18 436.795 MHz FM
JAS-1B 31 Aug 01:50:08 01:55:02 23° 93° (E) 01:59:33 435.800 - 435.900 CW/SSB
Sapphire 31 Aug 01:50:39 01:55:49 44° 61° (ENE) 02:00:57 437.095 MHz 1200 baud AX-25 AFSK
Gurwin Techsat 1B 31 Aug 02:18:37 02:22:36 21° 95° (E) 02:26:33 435.225 FM
PCSat 31 Aug 02:19:54 02:25:21 90° 69° (ENE) 02:30:46 145.825 MHz
Oscar 19 31 Aug 02:25:28 02:30:32 54° 286° (WNW) 02:35:33 437.125 CW, 437.150 USB
SO-50 31 Aug 02:44:43 02:49:01 53° 115° (ESE) 02:53:26 436.795 FM
AO-Echo 31 Aug 02:50:38 02:55:15 61° 285° (WNW) 02:59:55 ?
ITAMSAT 1 31 Aug 02:58:24 03:03:30 62° 286° (WNW) 03:08:37 435.822 SSB
Oscar 16 31 Aug 03:01:15 03:05:16 23° 291° (WNW) 03:09:16 437.025 USB, Beacon 2401.1428
Uribyol 2 31 Aug 03:08:26 03:13:22 45° 287° (WNW) 03:18:18 436.500 FM
TMSAT-1 31 Aug 03:09:01 03:14:10 51° 100° (E) 03:19:17 436.925 FM
AO-27 31 Aug 03:28:02 03:32:31 30° 290° (WNW) 03:37:00 436.795 MHz FM
Sapphire 31 Aug 03:35:05 03:38:51 19° 255° (WSW) 03:42:35 437.095 MHz 1200 baud AX-25 AFSK
JAS-1B 31 Aug 03:40:00 03:45:52 37° 292° (WNW) 03:51:09 435.800 - 435.900 CW/SSB
Uosat F 31 Aug 03:42:41 03:45:52 17° 95° (E) 03:49:02 435.120 FM
Gurwin Techsat 1B 31 Aug 03:57:45 04:02:35 37° 289° (WNW) 04:07:24 435.225 FM
OPAL 31 Aug 04:04:40 04:09:41 78° 74° (ENE) 04:14:48 ?
SO-50 31 Aug 04:27:32 04:29:54 14° 311° (NW) 04:32:17 436.795 FM
AO-7 31 Aug 04:37:34 04:45:48 66° 104° (ESE) 04:53:59 29.400 - 29.500 MHz
UOSAT-12 31 Aug 04:42:05 04:46:36 67° 116° (ESE) 04:51:14 437.025 FM, 437.400 FM
TMSAT-1 31 Aug 04:50:26 04:53:36 16° 294° (WNW) 04:56:46 436.925 FM
Uosat F 31 Aug 05:20:04 05:24:45 42° 288° (WNW) 05:29:26 435.120 FM
JAS-2 31 Aug 05:23:45 05:27:34 19° 97° (E) 05:31:35 435.800 - 435.900 CW/SSB, 435.910 FM
RS-15 31 Aug 05:32:28 05:40:15 22° 103° (ESE) 05:47:52 29.354 - 29.394 USB, Beacon 29.352 USB
STRAND 1 31 Aug 05:49:54 05:54:19 31° 70° (ENE) 05:58:44 ?
Hamsat 31 Aug 06:09:16 06:13:35 63° 100° (E) 06:17:49 145.90 MHz
UOSAT-12 31 Aug 06:25:15 06:27:12 12° 312° (NW) 06:29:11 437.025 FM, 437.400 FM
